HST
1 20580U 90037B   25002.88160328  .00013889  00000-0  57902-3 0  9994
2 20580  28.4687  82.9944 0002675  74.3722 285.7167 15.22174969707447
ISS (ZARYA)
1 25544U 98067A   25003.35940972  .00023404  00000-0  40658-3 0  9998
2 25544  51.6394  43.5721 0006223  40.5974 143.1760 15.50692603489598
CXO
1 25867U 99040B   25005.48161696  .00000610  00000-0  00000+0 0  9999
2 25867  45.7878 138.5273 8656211 305.8213   0.4036  0.37805792 26483